Location: Darlington Observatory
(36.4817°N, 105.8156°W)
Time: 19:02:52
(UTC-06:00)

NOSS 3-3 (A) - Visible Passes

Search period start: 25 October 2014 00:00
Search period end: 03 November 2014 23:00
Orbit: 969 x 1244 km, 63.4° (Epoch: 19 October)

Date Brightness Start Highest point End Pass type
(mag) Time Alt. Az. Time Alt. Az. Time Alt. Az.
25 Oct 7.4 19:49:06 10° W 19:51:57 12° WSW 19:54:50 10° SW visible
26 Oct 7.1 19:02:14 10° WNW 19:07:43 22° WSW 19:13:21 10° SSW visible
28 Oct 7.1 06:19:03 10° SE 06:22:16 14° ESE 06:25:32 10° ENE visible
29 Oct 7.5 18:40:17 10° WNW 18:44:28 16° WSW 18:48:44 10° SW visible
30 Oct 5.8 06:37:33 10° S 06:43:15 36° ESE 06:49:12 10° NE visible
31 Oct 6.6 05:54:25 10° SSE 05:58:59 21° ESE 06:03:40 10° ENE visible
01 Nov 7.1 05:13:15 10° ESE 05:14:49 11° ESE 05:16:24 10° E visible
02 Nov 5.0 05:14:00 10° S 05:20:05 51° ESE 05:26:28 10° NE visible
03 Nov 5.9 04:30:22 10° S 04:35:43 30° ESE 04:41:17 10° NE visible
